Regional Weather Roundup
Issued by NWS Binghamton, NY

Home | Current Version | Previous Version | Text Only | Print | Product List | Glossary On
Versions: 1 2 3 4 5 6 7 8 9 10 11 12 13 14 15 16 17 18 19 20 21 22 23 24 25 26 27 28
000
ASUS41 KBGM 180510
RWRBGM

REGIONAL WEATHER ROUNDUP
NATIONAL WEATHER SERVICE BINGHAMTON NY
100 AM EDT FRI AUG 18 2017

Note: "fair" indicates few or no clouds below 12,000 feet with no
significant weather and/or obstructions to visibility.

* = Station(s) that does not report precipitation, such as rain,
snow, etc, also no thunder or fog.

NYZ009-015>018-022>025-036-037-044>046-055>057-062-180600
...Central New York...

CITY           SKY/WX    TMP DP  RH WIND       PRES   REMARKS
Binghamton     MOCLDY    70  65  84 S8        29.90F
Cortland       MOCLDY    72  68  88 SE5       29.86F
Dansville      LGT RAIN  73  72  96 S3        29.79F FOG
Elmira         CLOUDY    76  71  85 CALM      29.82F
Seneca Falls   MOCLDY    73  70  88 S9        29.79F
Ithaca         CLOUDY    73  68  84 S10       29.85F
Hamilton       CLOUDY    70  64  83 S7        29.88F
Hornell        RAIN      72  70  94 CALM      29.85F
Monticello     CLOUDY    68  65  90 SE3       29.98F
Oneonta        RAIN      70 N/A N/A S3        29.94F
Penn Yan       CLOUDY    73  69  87 SW3       29.82F
Rome           CLOUDY    69  59  70 E8        29.87F
Sidney         RAIN      73  72  94 CALM      29.90F
Syracuse       LGT RAIN  75  67  76 SE10      29.80F
$$

PAZ038>040-043-044-047-048-072-180600
...Northeast Pennsylvania...

CITY           SKY/WX    TMP DP  RH WIND       PRES   REMARKS
Hazleton         N/A     73  70  88 SE7       29.97F
Scranton       CLOUDY    76  69  79 SW5       29.90F
$$
&&
KEY
WCI = Wind Chill Index
VSB = Visibility
HX  = Heat Index
$$




USA.gov is the U.S. government's official web portal to all federal, state and local government web resources and services.